Location: Le Liouquet
(43.1838°N, 5.6671°E)
Time: 19:50:20
(UTC+00:00)

Daily predictions for brighter satellites

Satellite Brightness Start Highest point End
(mag) Time Altitude Azimuth Time Altitude Azimuth Time Altitude Azimuth
H-2A R/B 2.9 17:48:53 10° SE 17:53:10 29° ENE 17:57:34 10° N
SJ 16-02 4.2 17:50:54 10° WSW 17:54:10 20° WNW 17:57:27 10° N
Cosmos 2263 Rocket 3.5 17:52:05 10° SW 17:57:23 44° WNW 18:02:44 10° NNE
Cosmos 1939 Rocket 3.2 17:56:51 10° S 18:00:59 77° WSW 18:05:09 10° NNW
USA 116 4.2 17:57:48 10° NNE 18:01:21 39° E 18:05:18 10° S
Cosmos 1844 Rocket 3.0 17:56:34 10° S 18:01:49 45° ESE 18:07:07 10° NE
Cosmos 1842 4.1 17:59:21 10° NNW 18:03:09 55° W 18:06:57 10° S
Cosmos 372 Rocket 4.0 17:58:27 10° SSW 18:03:41 81° ESE 18:08:55 10° NNE
Cosmos 1707 2.8 18:02:22 10° N 18:06:08 53° E 18:09:52 10° SSE
CZ-2C R/B 3.2 18:04:24 10° WSW 18:07:04 18° SSW 18:09:37 10° SSE
NOSS 3-2 (C) 4.4 18:00:11 10° NNW 18:07:23 48° NE 18:15:27 10° ESE
Cosmos 1844 4.1 18:03:58 10° S 18:09:17 42° ESE 18:14:33 10° NE
Cosmos 2034 Rocket 4.4 18:03:55 10° SSE 18:09:46 40° E 18:15:36 10° NNE
ISS -2.0 18:07:39 10° W 18:10:39 29° NNW 18:13:40 10° NE
NOSS 3-4 (A) 4.2 18:05:55 10° SSE 18:10:43 27° ESE 18:15:41 10° ENE
NOSS 3-4 (C) 4.2 18:06:03 10° SSE 18:10:49 26° ESE 18:15:47 10° ENE
USA 186 3.8 18:11:03 11° E 18:12:15 13° ENE 18:13:50 10° NE
Meteor 1-12 Rocket 4.3 18:07:17 10° S 18:13:04 63° E 18:18:47 10° NNE
Cosmos 1300 Rocket 3.5 18:14:06 10° S 18:18:27 63° E 18:22:51 10° NNE
Okean 1 Rocket 4.2 18:18:17 10° SE 18:21:49 23° E 18:25:22 10° NE
Sich 1 Rocket 4.0 18:18:17 10° SSW 18:22:47 72° W 18:27:22 10° N
Cosmos 2298 Rocket 4.0 18:19:38 10° SSW 18:24:57 83° ESE 18:30:19 10° NNE
CENTAUR R/B 3.4 18:18:37 10° NNW 18:26:33 58° NE 18:34:46 12° SE
Cosmos 1833 Rocket 4.4 18:24:09 10° N 18:27:39 16° NE 18:30:12 13° ENE
CSL-04 Debris 4.1 18:23:46 10° SSE 18:29:08 78° ENE 18:34:32 10° NNW
CSL-04 Rocket 3.6 18:25:40 10° SSE 18:31:05 77° ENE 18:36:37 10° N
Cosmos 1766 4.4 18:29:42 10° SE 18:32:49 23° E 18:35:58 10° NE
ATLAS 2AS CENTAUR R/B 3.4 18:25:43 10° S 18:32:59 42° ESE 18:40:17 10° NE
Okean 2 Rocket 3.1 18:28:30 10° S 18:32:59 88° W 18:37:29 10° N
YAOGAN 1 3.0 18:29:28 10° S 18:33:45 66° WSW 18:38:04 10° NNW
Cosmos 1025 Rocket 3.0 18:31:11 10° N 18:35:35 81° E 18:39:59 10° S
ATLAS 3B R/B 3.8 18:32:40 10° NNW 18:38:25 28° NE 18:42:34 16° E
Abrixas rocket 2.4 18:38:24 10° WNW 18:41:10 44° NNE 18:42:11 29° ENE
SWAS 4.4 18:37:07 10° NNW 18:41:23 64° ENE 18:44:39 16° SE
CREW DRAGON DEMO-1 DEB 3.5 18:40:21 10° NW 18:43:14 41° NNE 18:44:16 29° ENE
Cosmos 1536 Rocket 3.5 18:40:54 10° N 18:45:23 77° E 18:49:52 10° SSE
Cosmos 1125 Rocket 3.4 18:40:18 10° SSW 18:45:36 78° ESE 18:50:56 10° NNE
SJ-6B 3.6 18:48:31 27° E 18:49:07 29° ENE 18:52:25 10° N
CZ-4 R/B 3.3 18:47:37 10° SSW 18:51:26 33° W 18:55:15 10° NNW
SJ-11-01 4.5 18:47:41 10° S 18:52:23 74° WSW 18:57:05 10° NNW
CZ-2C R/B 3.7 18:48:08 10° S 18:53:25 63° W 18:59:01 10° NNW
Cosmos 1464 Rocket 4.3 18:47:45 10° SSW 18:53:51 68° W 19:00:02 10° N
USA 238 DEB 4.0 18:48:35 10° NW 18:55:52 78° WSW 19:03:14 11° SSE
USA 238 4.0 18:48:42 10° NW 18:55:58 79° WSW 19:03:18 11° SSE
Cosmos 2285 Rocket 3.9 18:49:58 10° S 18:56:15 75° ESE 19:02:36 10° NNE
Cosmos 1674 2.6 18:53:54 10° N 18:57:45 69° E 19:00:17 20° SSE
Cosmos 2026 Rocket 4.4 18:52:32 10° N 18:58:35 43° ENE 19:02:16 22° SE
Cosmos 1092 Rocket 4.0 18:52:45 10° N 18:58:50 55° ENE 19:04:17 13° SSE
MOS 1 Rocket 3.3 18:59:48 10° N 19:04:09 71° WNW 19:08:23 10° SSW
TSX-5 3.8 19:03:52 10° SSW 19:07:33 66° ESE 19:12:14 10° NNE
ARGOS 3.2 19:03:38 10° S 19:08:59 79° WSW 19:14:24 10° NNW
Cosmos 1340 Rocket 4.3 19:15:11 23° NE 19:15:11 23° NE 19:16:58 10° NNE
CZ-2C R/B 2.7 19:08:57 10° NNE 19:14:31 65° E 19:20:05 10° S
Cosmos 1733 3.1 19:13:47 42° SSE 19:14:54 65° E 19:18:43 10° NNE
MOS 1 4.3 19:13:05 25° SSE 19:16:24 66° ENE 19:22:04 10° N
Lacrosse 5 rocket 3.7 19:16:29 10° NNW 19:19:10 15° NNE 19:20:43 13° NE
Cosmos 2082 Rocket 3.5 19:16:34 10° N 19:20:59 23° NE 19:21:17 23° NE
BREEZE-M R/B 4.3 19:12:33 10° WSW 19:23:03 59° NNW 19:24:25 34° NE
BREEZE-M DEB (TANK) 3.6 19:19:46 10° WNW 19:23:14 62° SSW 19:27:36 28° SE
DMSP B5D2-2 4.0 19:19:03 10° NNE 19:24:21 68° ESE 19:29:35 10° S
Cosmos 494 Rocket 4.4 19:20:53 10° NNW 19:26:05 61° WSW 19:29:53 18° S
Cosmos 1805 3.7 19:22:58 10° SSW 19:26:50 61° W 19:30:43 10° N
OBJECT-B 2.9 19:28:48 19° N 19:28:48 19° N 19:29:56 10° N
Ariane Rocket 3.0 19:28:06 28° S 19:30:52 82° WSW 19:35:59 10° NNW
SL-08 RB Rocket 4.1 19:27:52 20° S 19:30:59 62° W 19:35:29 10° NNW
Milstar 3 Cent rocket 3.9 19:27:25 10° SW 19:32:02 19° S 19:32:38 18° S
H-2A R/B 3.5 19:27:57 10° SSW 19:32:28 35° W 19:37:08 10° NNW
USA 234 4.1 19:38:13 31° SSE 19:38:13 31° SSE 19:42:18 10° SSW
Cosmos 1269 Rocket 4.0 19:32:44 10° NNW 19:38:05 86° WSW 19:39:33 49° SSE
MetOp-A 4.1 19:40:20 39° S 19:42:23 82° WSW 19:47:46 10° NNW
USA 186 3.3 19:42:34 34° W 19:42:36 34° W 19:45:39 10° NNW
Cosmos 1626 2.9 19:39:19 10° N 19:42:02 46° NNW 19:42:02 46° NNW
COSMOS 2406 3.0 19:41:38 10° NNW 19:47:20 75° ENE 19:47:55 68° ESE
ISS -1.3 19:45:43 10° NW 19:47:46 18° N 19:47:46 18° N
Cosmos 2278 Rocket 2.8 19:44:00 10° SSW 19:51:32 41° NE 19:55:13 10° NNE
Meteor 1-22 Rocket 4.5 19:48:19 10° SSW 19:54:12 74° WNW 20:00:18 10° N
Lacrosse 4 Rocket 3.2 19:51:02 10° N 19:52:52 22° N 19:52:52 22° N
Meteor 2-5 Rocket 4.4 19:51:58 10° NNW 19:57:31 54° W 20:00:46 25° SSW
Meteor 1-24 Rocket 4.0 19:54:20 10° NNW 19:59:53 68° W 20:01:37 45° SSW
NOSS 3-4 (A) 4.0 19:55:19 10° SW 20:01:06 56° NW 20:07:19 10° NNE
NOSS 3-4 (C) 4.0 19:55:25 10° SW 20:01:12 56° NW 20:07:26 10° NNE
Resurs 01 Rocket 2.9 20:03:26 34° N 20:03:26 34° N 20:06:03 10° N
Meteor 2-19 Rocket 4.4 19:58:01 10° N 20:03:47 68° ENE 20:03:47 68° ENE
Cosmos 1833 Rocket 2.7 20:06:44 10° NNW 20:11:54 75° NNW 20:11:54 75° NNW
Cosmos 2251 Rocket 4.4 20:10:02 10° NNW 20:13:44 41° N 20:13:44 41° N
CENTAUR R/B 4.1 20:09:36 10° NW 20:17:17 43° WSW 20:21:59 24° SSW
SPOT 3 Rocket 4.0 20:20:50 59° WNW 20:20:50 59° WNW 20:25:23 10° NNW
ATLAS 2AS CENTAUR R/B 3.7 20:16:07 10° WSW 20:23:53 54° NW 20:31:35 10° NNE
ATLAS 3B R/B 2.6 20:22:57 10° NW 20:29:50 83° WSW 20:29:50 83° WSW
Cosmos 1655 Rocket 4.3 20:32:33 10° N 20:37:50 64° NNW 20:37:50 64° NNW
Lacrosse 5 rocket 4.2 20:55:12 10° NW 20:56:20 17° NNW 20:56:20 17° NNW
Cosmos 2082 Rocket 3.6 20:59:57 10° NNW 21:03:08 34° NW 21:03:08 34° NW
Cosmos 2278 Rocket 4.4 21:33:01 20° WNW 21:34:12 21° NW 21:38:29 10° N
